When you browse on this site, cookies collect data to enhance your experience and personalize the content and advertising you see.
Visit our Privacy Policy to learn more. By continuing to use the site, you agree to this use of cookies and data.
  • In Deutschland
  • Länderverzeichnis
  • Für 7 Tage
  • Wassertemperatur
  • Satellitenkarten
  • Wetterkarte
  • Widgets
  • user-avatar
    Anmelden

    Stündliche Wetter Berlin

    Heute, 25 April, Donnerstag

    Zeit Temperatur Niederschläge Wind Luftdruck Luftfeuchtigkeit
    00:00 +16°C° 0.3 mm 3 m/S 752 mmHg 78%
    01:00 +14°C° 0 mm 3 m/S 752 mmHg 87%
    02:00 +14°C° 0.8 mm 3 m/S 752 mmHg 88%
    03:00 +14°C° 0.8 mm 3 m/S 753 mmHg 90%
    04:00 +14°C° 0.8 mm 3 m/S 753 mmHg 91%
    05:00 +14°C° 0 mm 3 m/S 754 mmHg 88%
    06:00 +14°C° 0 mm 3 m/S 754 mmHg 84%
    07:00 +14°C° 0 mm 3 m/S 755 mmHg 78%
    08:00 +17°C° 0 mm 3 m/S 755 mmHg 69%
    09:00 +18°C° 0 mm 2 m/S 755 mmHg 59%
    10:00 +19°C° 0 mm 2 m/S 756 mmHg 50%
    11:00 +21°C° 0 mm 2 m/S 756 mmHg 43%
    12:00 +24°C° 0 mm 2 m/S 756 mmHg 35%
    13:00 +25°C° 0 mm 2 m/S 756 mmHg 28%
    14:00 +25°C° 0 mm 2 m/S 756 mmHg 27%
    15:00 +26°C° 0 mm 2 m/S 755 mmHg 27%
    16:00 +26°C° 0 mm 2 m/S 755 mmHg 26%
    17:00 +25°C° 0 mm 2 m/S 755 mmHg 31%
    18:00 +23°C° 0 mm 2 m/S 755 mmHg 36%
    19:00 +21°C° 0 mm 2 m/S 755 mmHg 41%
    20:00 +20°C° 0 mm 3 m/S 755 mmHg 42%
    21:00 +19°C° 0 mm 3 m/S 755 mmHg 44%
    22:00 +18°C° 0 mm 4 m/S 754 mmHg 45%
    23:00 +18°C° 0 mm 4 m/S 754 mmHg 53%

    Morgen, 26 April, Freitag

    Zeit Temperatur Niederschläge Wind Luftdruck Luftfeuchtigkeit
    00:00 +17°C° 0 mm 4 m/S 754 mmHg 61%
    01:00 +17°C° 0 mm 4 m/S 753 mmHg 69%
    02:00 +16°C° 0 mm 3 m/S 753 mmHg 73%
    03:00 +16°C° 0 mm 3 m/S 753 mmHg 76%
    04:00 +16°C° 0 mm 3 m/S 752 mmHg 80%
    05:00 +16°C° 0.1 mm 3 m/S 752 mmHg 79%
    06:00 +17°C° 0.1 mm 3 m/S 752 mmHg 78%
    07:00 +18°C° 0.1 mm 3 m/S 752 mmHg 77%
    08:00 +19°C° 0 mm 3 m/S 752 mmHg 70%
    09:00 +21°C° 0 mm 2 m/S 751 mmHg 63%
    10:00 +24°C° 0 mm 2 m/S 751 mmHg 56%
    11:00 +25°C° 0 mm 1 m/S 751 mmHg 52%
    12:00 +26°C° 0 mm 1 m/S 751 mmHg 48%
    13:00 +28°C° 0 mm 1 m/S 751 mmHg 44%
    14:00 +26°C° 0.9 mm 2 m/S 751 mmHg 52%
    15:00 +23°C° 0.9 mm 4 m/S 751 mmHg 61%
    16:00 +21°C° 0.9 mm 5 m/S 751 mmHg 69%
    17:00 +20°C° 0.6 mm 6 m/S 751 mmHg 73%
    18:00 +17°C° 0.6 mm 6 m/S 751 mmHg 77%
    19:00 +16°C° 0.6 mm 6 m/S 751 mmHg 82%
    20:00 +15°C° 0.2 mm 6 m/S 752 mmHg 82%
    21:00 +14°C° 0.2 mm 6 m/S 752 mmHg 83%
    22:00 +13°C° 0.2 mm 6 m/S 753 mmHg 83%
    23:00 +11°C° 0.1 mm 6 m/S 753 mmHg 82%

    übermorgen, 27 April, Samstag

    Zeit Temperatur Niederschläge Wind Luftdruck Luftfeuchtigkeit
    00:00 +11°C° 0.1 mm 6 m/S 754 mmHg 81%
    01:00 +10°C° 0.1 mm 6 m/S 754 mmHg 80%
    02:00 +10°C° 0 mm 5 m/S 754 mmHg 79%
    03:00 +10°C° 0 mm 5 m/S 754 mmHg 78%
    04:00 +9°C° 0 mm 5 m/S 754 mmHg 77%
    05:00 +10°C° 0 mm 5 m/S 755 mmHg 76%
    06:00 +10°C° 0 mm 5 m/S 755 mmHg 74%
    07:00 +12°C° 0 mm 4 m/S 755 mmHg 73%
    08:00 +13°C° 0 mm 4 m/S 755 mmHg 66%
    09:00 +15°C° 0 mm 4 m/S 755 mmHg 60%
    10:00 +17°C° 0 mm 4 m/S 755 mmHg 53%
    11:00 +18°C° 0 mm 4 m/S 755 mmHg 50%
    12:00 +19°C° 0 mm 4 m/S 755 mmHg 46%
    13:00 +20°C° 0 mm 4 m/S 754 mmHg 43%
    14:00 +20°C° 0 mm 4 m/S 754 mmHg 43%
    15:00 +20°C° 0 mm 4 m/S 754 mmHg 43%
    16:00 +20°C° 0 mm 4 m/S 754 mmHg 44%
    17:00 +18°C° 0.2 mm 4 m/S 754 mmHg 53%
    18:00 +15°C° 0.2 mm 4 m/S 755 mmHg 62%
    19:00 +14°C° 0.2 mm 4 m/S 755 mmHg 71%
    20:00 +13°C° 0 mm 4 m/S 755 mmHg 76%
    21:00 +12°C° 0 mm 3 m/S 756 mmHg 80%
    22:00 +11°C° 0 mm 3 m/S 756 mmHg 84%
    23:00 +10°C° 0 mm 3 m/S 756 mmHg 85%

    28 April, Sonntag

    Zeit Temperatur Niederschläge Wind Luftdruck Luftfeuchtigkeit
    00:00 +10°C° 0 mm 3 m/S 756 mmHg 85%
    01:00 +10°C° 0 mm 2 m/S 757 mmHg 86%
    02:00 +9°C° 0 mm 2 m/S 757 mmHg 87%
    03:00 +9°C° 0 mm 2 m/S 757 mmHg 88%
    04:00 +8°C° 0 mm 3 m/S 757 mmHg 88%
    05:00 +9°C° 0 mm 3 m/S 758 mmHg 85%
    06:00 +9°C° 0 mm 3 m/S 758 mmHg 82%
    07:00 +9°C° 0 mm 3 m/S 758 mmHg 78%
    08:00 +11°C° 0 mm 3 m/S 759 mmHg 71%
    09:00 +12°C° 0 mm 3 m/S 759 mmHg 64%
    10:00 +14°C° 0 mm 4 m/S 759 mmHg 56%
    11:00 +14°C° 0 mm 3 m/S 759 mmHg 52%
    12:00 +16°C° 0 mm 3 m/S 759 mmHg 47%
    13:00 +17°C° 0 mm 3 m/S 759 mmHg 43%
    14:00 +17°C° 0 mm 2 m/S 759 mmHg 43%
    15:00 +17°C° 0 mm 2 m/S 759 mmHg 43%
    16:00 +17°C° 0 mm 2 m/S 759 mmHg 43%
    17:00 +16°C° 0 mm 2 m/S 759 mmHg 48%
    18:00 +16°C° 0 mm 2 m/S 759 mmHg 53%
    19:00 +15°C° 0 mm 2 m/S 760 mmHg 58%
    20:00 +14°C° 0 mm 2 m/S 760 mmHg 64%
    21:00 +13°C° 0 mm 2 m/S 760 mmHg 70%
    22:00 +13°C° 0 mm 2 m/S 760 mmHg 76%
    23:00 +13°C° 0 mm 2 m/S 760 mmHg 77%

    29 April, Montag

    Zeit Temperatur Niederschläge Wind Luftdruck Luftfeuchtigkeit
    00:00 +12°C° 0 mm 2 m/S 760 mmHg 77%
    01:00 +11°C° 0 mm 3 m/S 760 mmHg 77%
    02:00 +11°C° 0.2 mm 3 m/S 760 mmHg 80%
    03:00 +10°C° 0.2 mm 3 m/S 760 mmHg 82%
    04:00 +10°C° 0.2 mm 4 m/S 760 mmHg 85%
    05:00 +10°C° 0.1 mm 4 m/S 760 mmHg 85%
    06:00 +8°C° 0.1 mm 4 m/S 760 mmHg 85%
    07:00 +8°C° 0.1 mm 4 m/S 760 mmHg 86%
    08:00 +8°C° 0.8 mm 4 m/S 760 mmHg 86%
    09:00 +8°C° 0.8 mm 4 m/S 760 mmHg 87%
    10:00 +8°C° 0.8 mm 3 m/S 760 mmHg 88%
    11:00 +9°C° 0.3 mm 3 m/S 760 mmHg 88%
    12:00 +10°C° 0.3 mm 3 m/S 759 mmHg 88%
    13:00 +10°C° 0.3 mm 2 m/S 759 mmHg 88%
    14:00 +13°C° 0.1 mm 2 m/S 759 mmHg 85%
    15:00 +14°C° 0.1 mm 2 m/S 759 mmHg 82%
    16:00 +15°C° 0.1 mm 2 m/S 759 mmHg 79%
    17:00 +13°C° 0 mm 3 m/S 760 mmHg 75%
    18:00 +13°C° 0 mm 4 m/S 760 mmHg 70%
    19:00 +12°C° 0 mm 4 m/S 760 mmHg 66%
    20:00 +11°C° 0 mm 4 m/S 760 mmHg 67%
    21:00 +8°C° 0 mm 4 m/S 761 mmHg 68%
    22:00 +7°C° 0 mm 4 m/S 761 mmHg 69%
    23:00 +7°C° 0 mm 4 m/S 761 mmHg 70%

    30 April, Dienstag

    Zeit Temperatur Niederschläge Wind Luftdruck Luftfeuchtigkeit
    00:00 +6°C° 0 mm 4 m/S 761 mmHg 71%
    01:00 +7°C° 0 mm 3 m/S 761 mmHg 72%
    02:00 +7°C° 0 mm 3 m/S 761 mmHg 73%
    03:00 +5°C° 0 mm 3 m/S 761 mmHg 73%
    04:00 +4°C° 0 mm 3 m/S 761 mmHg 74%
    05:00 +5°C° 0 mm 3 m/S 761 mmHg 72%
    06:00 +7°C° 0 mm 3 m/S 762 mmHg 70%
    07:00 +7°C° 0 mm 3 m/S 762 mmHg 67%
    08:00 +9°C° 0 mm 3 m/S 762 mmHg 61%
    09:00 +12°C° 0 mm 3 m/S 762 mmHg 54%
    10:00 +14°C° 0 mm 3 m/S 762 mmHg 47%
    11:00 +16°C° 0 mm 3 m/S 761 mmHg 44%
    12:00 +17°C° 0 mm 3 m/S 761 mmHg 41%
    13:00 +18°C° 0 mm 4 m/S 761 mmHg 38%
    14:00 +18°C° 0 mm 4 m/S 761 mmHg 38%
    15:00 +18°C° 0 mm 4 m/S 761 mmHg 38%
    16:00 +18°C° 0 mm 4 m/S 761 mmHg 38%
    17:00 +17°C° 0 mm 4 m/S 761 mmHg 43%
    18:00 +14°C° 0 mm 4 m/S 761 mmHg 49%
    19:00 +13°C° 0 mm 4 m/S 761 mmHg 54%
    20:00 +12°C° 0 mm 4 m/S 761 mmHg 56%
    21:00 +10°C° 0 mm 4 m/S 761 mmHg 59%
    22:00 +8°C° 0 mm 4 m/S 762 mmHg 61%
    23:00 +8°C° 0 mm 3 m/S 762 mmHg 63%
    Mehr zeigen